Location: Skalnate Pleso
(49.1889°N, 20.2450°E)
Time: 06:57:54
(UTC+01:00)

Okean O Rocket - Pass Details

Date: 19 November 2019
Orbit: 622 x 645 km, 98.2° (Epoch: 07 December)

Event Time Altitude Azimuth Distance (km) Brightness Sun altitude
Rises 05:45:01 0° 10° (N) 2,917 5.0 -11.3°
Reaches altitude 10° 05:47:14 10° 7° (N) 2,005 4.1 -10.9°
Maximum altitude 05:51:30 57° 289° (WNW) 739 1.6 -10.3°
Drops below altitude 10° 05:55:45 10° 211° (SSW) 1,992 4.0 -9.6°
Sets 05:57:57 0° 207° (SSW) 2,896 4.9 -9.3°
